Flag for Canada Weather past 2 weeks in Summerside, Prince Edward Island, Canada

Now
69 °F

Mild.


Feels Like: 69 °F
Forecast: 59 / 72 °F
Wind: 9 mph from Southwest

Location: Summerside Airport

Current Time: Jul 6, 2015 at 12:52:01 PM

Latest Report: Jul 6, 2015 at 12:00 PM


Visibility: N/A

Pressure: 30.14 "Hg

Humidity: 75%

Dew point: 61 °F

Location of SummersideLocation

Historic Weather in Summerside — Graph

°F

Summerside temperature yesterday

Maximum temperature yesterday: 77 °F (at 2:00 PM)
Minimum temperature yesterday: 61 °F (at 6:00 AM)
Average temperature yesterday: 68 °F

Past Weeks' High & Low Weather Summary

 TemperatureHumidityPressure
High80 °F (Jul 4, 4:00 PM)100% (Jun 22, 10:00 AM)30.19 "Hg (Jun 22, 10:00 AM)
Low42 °F (Jun 27, 6:00 AM)46% (Jul 4, 2:00 PM)29.65 "Hg (Jun 24, 7:00 AM)
Average61 °F85%29.90 "Hg
* Reported Jun 21 12:00 Noon — Jul 6 12:00 Noon, Summerside, Weather by CustomWeather, © 2015

Note: Actual official high and low records may vary slightly from our data, if they occured in-between our weather recording intervals... More about our weather records

Advertising

Summerside weather history for previous 24 hours

 ConditionsComfort  
Time TempWeatherWind HumidityBarometerVisibility
12:00 PM
Mon, Jul 6
69 °FMild.9 mph75%30.14 "HgN/A
11:00 AM70 °FMild.2 mph70%30.11 "HgN/A
10:00 AM68 °FMild.2 mph73%30.11 "HgN/A
9:00 AM65 °FMild.3 mph80%30.11 "HgN/A
8:00 AM62 °FMild.2 mph89%30.09 "HgN/A
7:00 AM58 °FCool.No wind93%30.08 "HgN/A
6:00 AM56 °FCool.2 mph94%30.06 "HgN/A
5:00 AM57 °FCool.2 mph93%30.04 "HgN/A
4:00 AM58 °FCool.2 mph91%30.03 "HgN/A
3:00 AM61 °FCool.6 mph87%30.02 "HgN/A
2:00 AM62 °FMild.7 mph83%30.02 "HgN/A
1:00 AM63 °FMild.7 mph79%30.01 "HgN/A
12:00 AM64 °FMild.5 mph76%30.00 "HgN/A
11:00 PM
Sun, Jul 5
66 °FMild.3 mph85%30.00 "HgN/A
10:00 PM67 °FMild.2 mph83%29.98 "HgN/A
9:00 PM67 °FMild.3 mph81%29.96 "HgN/A
8:00 PM70 °FMild.1 mph66%29.96 "HgN/A
7:00 PM70 °FMild.5 mph64%29.94 "HgN/A
6:00 PM71 °FMild.7 mph68%29.92 "HgN/A
5:00 PM73 °FMild.10 mph68%29.91 "HgN/A
4:00 PM74 °FMild.12 mph62%29.90 "HgN/A
3:00 PM76 °FMild.9 mph57%29.89 "HgN/A
2:00 PM77 °FWarm.8 mph56%29.90 "HgN/A
1:00 PM75 °FMild.8 mph60%29.90 "HgN/A
12:00 PM72 °FMild.9 mph68%29.90 "HgN/A
Weather by CustomWeather, © 2015

See weather overviewHow to use our weather pages